KE5PL Weather Reports


time (UTC)temp
F
wind
direction
speed
knots
gust
knots
rain 1hr
in
rain 24hr
in
rain mn
in
humidity
%
barometer
mb
20260506044655 54 230 0.0 9.6 0.00 0.00 0.00 36 1028.5
20260506043048 54 223 1.7 7.0 0.00 0.00 0.00 36 1028.3
20260506041559 54 220 0.9 5.2 0.00 0.00 0.00 36 1028.0
20260506040044 55 213 0.0 4.3 0.00 0.00 0.00 35 1027.8
20260506034619 55 249 0.9 6.1 0.00 0.00 0.00 35 1027.7
20260506033041 55 323 0.9 7.8 0.00 0.00 0.00 36 1027.4
20260506031543 55 205 0.9 10.4 0.00 0.00 0.00 36 1027.3
20260506030040 55 160 0.9 11.3 0.00 0.00 0.00 36 1027.1
20260506024538 56 210 1.7 9.6 0.00 0.00 0.00 35 1026.9
20260506023054 56 180 3.5 9.6 0.00 0.00 0.00 33 1027.0
20260506021535 56 212 1.7 12.2 0.00 0.00 0.00 33 1026.8
20260506020035 56 218 1.7 11.3 0.00 0.00 0.00 33 1026.5
20260506014534 56 249 2.6 8.7 0.00 0.00 0.00 34 1026.2
20260506013003 56 206 0.0 7.0 0.00 0.00 0.00 34 1025.9
20260506011502 56 205 1.7 7.0 0.00 0.00 0.00 35 1025.7
20260506010104 57 207 0.9 11.3 0.00 0.00 0.00 35 1025.7
20260506004627 57 205 3.5 10.4 0.00 0.00 0.00 36 1025.7
20260506003111 57 248 2.6 11.3 0.00 0.00 0.00 35 1025.7
20260506001558 57 204 2.6 9.6 0.00 0.00 0.00 36 1025.4
20260506000057 58 236 4.3 9.6 0.00 0.00 0.00 38 1025.2
20260505234627 58 248 3.5 10.4 0.00 0.00 0.00 38 1025.0
20260505233102 58 247 5.2 13.9 0.00 0.00 0.00 39 1024.9
20260505231554 57 196 3.5 15.6 0.00 0.00 0.00 46 1025.0
20260505230051 57 224 1.7 7.8 0.00 0.00 0.00 49 1025.2
20260505224551 56 307 1.7 9.6 0.00 0.00 0.00 50 1025.3
20260505223051 57 205 3.5 9.6 0.00 0.00 0.00 48 1025.2
20260505221550 57 200 2.6 12.2 0.00 0.00 0.00 48 1025.2
20260505220101 58 200 3.5 16.5 0.00 0.00 0.00 47 1025.1
20260505214549 60 219 1.7 8.7 0.00 0.00 0.00 45 1025.1
20260505213047 60 212 3.5 10.4 0.00 0.00 0.00 44 1025.2
20260505211551 59 209 2.6 8.7 0.00 0.00 0.00 46 1025.4
20260505210046 60 240 3.5 13.0 0.00 0.00 0.00 45 1025.5
20260505204545 61 210 3.5 10.4 0.00 0.00 0.00 45 1025.5
20260505203042 59 212 3.5 13.9 0.00 0.00 0.00 44 1025.8
20260505201542 58 160 3.5 13.0 0.00 0.00 0.00 47 1026.0
20260505200041 59 171 3.5 12.2 0.00 0.00 0.00 46 1026.2
20260505194542 59 219 4.3 13.0 0.00 0.00 0.00 46 1026.2
20260505193044 59 210 2.6 13.0 0.00 0.00 0.00 47 1025.9
20260505191550 58 229 1.7 10.4 0.00 0.00 0.00 48 1026.0
20260505190035 58 184 4.3 13.9 0.00 0.00 0.00 48 1025.9
20260505184503 59 229 5.2 14.8 0.00 0.00 0.00 45 1026.2
20260505183007 60 208 3.5 8.7 0.00 0.00 0.00 43 1026.2
20260505181600 59 218 1.7 11.3 0.00 0.00 0.00 43 1026.1
20260505174611 59 212 3.5 8.7 0.00 0.00 0.00 41 1026.6
20260505173053 56 165 3.5 10.4 0.00 0.00 0.00 46 1026.8
20260505171529 54 218 3.5 9.6 0.00 0.00 0.00 52 1026.9
20260505170027 58 205 4.3 7.8 0.00 0.00 0.00 40 1026.6
20260505164520 58 202 4.3 10.4 0.00 0.00 0.00 40 1026.6
20260505163021 57 146 2.6 8.7 0.00 0.00 0.00 42 1026.8
20260505161518 57 204 1.7 8.7 0.00 0.00 0.00 43 1026.5
20260505153017 55 230 0.9 8.7 0.00 0.00 0.00 45 1026.2
20260505151513 54 236 3.5 11.3 0.00 0.00 0.00 44 1026.0
20260505124523 0 0.0 0.0 0.00 0.00 0.00 1024.1
20260505123022 0 0.0 0.0 0.00 0.00 0.00 1024.1
20260505121544 0 0.0 0.0 0.00 0.00 0.00 1023.9
20260505120040 0 0.0 0.0 0.00 0.00 0.00 1024.0
20260505114506 54 244 3.5 14.8 0.00 0.00 0.00 37 1024.3
20260505113005 55 168 2.6 18.2 0.00 0.00 0.00 40 1024.1
20260505111609 55 259 2.6 13.9 0.00 0.00 0.00 40 1024.1
20260505101518 55 254 3.5 13.0 0.00 0.00 0.00 41 1025.1
20260505100015 55 195 3.5 13.0 0.00 0.00 0.00 40 1025.2
20260505094547 55 160 3.5 13.0 0.00 0.00 0.00 41 1025.4
20260505093041 56 266 4.3 13.0 0.00 0.00 0.00 40 1025.1
20260505080027 56 240 0.9 10.4 0.00 0.00 0.00 41 1027.2
20260505074509 56 251 0.9 6.1 0.00 0.00 0.00 40 1027.1
20260505073108 57 209 0.9 7.0 0.00 0.00 0.00 39 1027.4
20260505071504 57 209 2.6 7.8 0.00 0.00 0.00 38 1027.4
20260505070100 58 262 1.7 13.0 0.00 0.00 0.00 37 1027.1
20260505064603 58 195 2.6 11.3 0.00 0.00 0.00 34 1026.9
20260505063057 58 205 5.2 11.3 0.00 0.00 0.00 32 1026.9
20260505060028 57 229 1.7 8.7 0.00 0.00 0.00 33 1027.3
20260505054521 58 243 1.7 6.1 0.00 0.00 0.00 34 1027.6
20260505053021 58 227 1.7 5.2 0.00 0.00 0.00 33 1028.1
20260505051640 59 193 1.7 6.1 0.00 0.00 0.00 31 1028.6